Location: Filler
(36.7551°N, 30.4456°E)
Time: 07:13:36
(UTC+00:00)

FENGYUN 3A - Pass Details

Date: 16 September 2024
Orbit: 821 x 835 km, 98.6° (Epoch: 12 October)

Event Time Altitude Azimuth Distance (km) Brightness Sun altitude
Rises 00:09:54 0° 13° (NNE) 3,366 7.5 -39.5°
Reaches altitude 10° 00:12:16 10° 14° (NNE) 2,428 6.6 -39.1°
Enters shadow 00:13:59 21° 15° (NNE) 1,762 5.7 -38.9°
